Location: Ipswich
(52.0579°N, 1.1528°E)
Time: 21:55:07
(UTC+01:00)

ISS - Pass Details

Date: 06 May 2026
Orbit: 414 x 424 km, 51.6° (Epoch: 15 May)

Event Time Altitude Azimuth Distance (km) Brightness Sun altitude
Exits shadow 03:05:17 17° 274° (W) 1,125 -1.9 -15.6°
Maximum altitude 03:07:41 64° 195° (SSW) 467 -3.8 -15.4°
Drops below altitude 10° 03:11:01 10° 113° (ESE) 1,499 -0.8 -15.1°
Sets 03:13:08 0° 111° (ESE) 2,364 0.2 -14.9°
